Weather History for Ironwood, MI

Change the Weather History Date:

Friday, September 20, 2013

  Actual Average Record
Temperature  
Mean Temperature 58 °F -  
Max Temperature 66 °F 61 °F 78 °F (2005)
Min Temperature 50 °F 43 °F 33 °F (2010)
Degree Days  
Heating Degree Days 7    
Growing Degree Days 8 (Base 50)    
Moisture  
Dew Point 52 °F    
Average Humidity 79    
Maximum Humidity 88    
Minimum Humidity 67    
Precipitation  
Precipitation 0.00 in - - ()
Sea Level Pressure  
Sea Level Pressure 29.72 in    
Wind  
Wind Speed 10 mph (West)    
Max Wind Speed 17 mph    
Max Gust Speed 23 mph    
Visibility 10 miles    
Events      
Averages and records for this station are not official NWS values.
T = Trace of Precipitation, MM = Missing Value Source: NWS Daily Summary

Daily Weather History Graph

Daily Weather History Graph

Search for Another Location

Airport:

Trip Planner

Search our weather history database for the weather conditions in past years. The results will help you decide how hot, cold, wet, or windy it might be!

Date:

Astronomy

Sep. 20, 2013 Rise Set
Actual Time 6:45 AM CDT 7:01 PM CDT
Civil Twilight 6:14 AM CDT 7:31 PM CDT
Nautical Twilight 5:39 AM CDT 8:07 PM CDT
Astronomical Twilight 5:02 AM CDT 8:43 PM CDT
Moon 7:26 PM CDT 8:07 AM CDT
Length of Visible Light 13h 16m
Length of Day
12h 16m
Full, 98% of the Moon is Illuminated
Sep 20
Full
Sep 26
Last Quarter
Oct 4
New
Oct 11
First Quarter
Oct 18
Full

Hourly Weather History & Observations

Time (CDT) Temp. Dew Point Humidity Pressure Visibility Wind Dir Wind Speed Gust Speed Precip Events Conditions
12:15 AM 66.2 °F 62.6 °F 88% 29.67 in 10.0 mi West 10.4 mph - N/A   Overcast
12:35 AM 66.2 °F 62.6 °F 88% 29.66 in 10.0 mi West 9.2 mph - N/A   Overcast
12:55 AM 66.2 °F 62.6 °F 88% 29.66 in 10.0 mi West 11.5 mph - N/A   Overcast
1:15 AM 66.2 °F 62.6 °F 88% 29.66 in 10.0 mi West 10.4 mph - N/A   Overcast
1:35 AM 66.2 °F 62.6 °F 88% 29.66 in 8.0 mi West 10.4 mph - N/A   Overcast
1:55 AM 66.2 °F 62.6 °F 88% 29.66 in 8.0 mi West 10.4 mph - N/A   Overcast
2:15 AM 66.2 °F 62.6 °F 88% 29.66 in 10.0 mi West 12.7 mph - N/A   Overcast
2:35 AM 66.2 °F 62.6 °F 88% 29.66 in 10.0 mi West 11.5 mph - N/A   Overcast
2:55 AM 64.4 °F 60.8 °F 88% 29.66 in 10.0 mi West 10.4 mph - N/A   Overcast
3:15 AM 64.4 °F 60.8 °F 88% 29.66 in 10.0 mi West 9.2 mph - N/A   Overcast
3:35 AM 64.4 °F 60.8 °F 88% 29.66 in 10.0 mi West 10.4 mph - N/A   Overcast
3:55 AM 64.4 °F 60.8 °F 88% 29.66 in 10.0 mi West 9.2 mph - N/A   Overcast
4:15 AM 64.4 °F 60.8 °F 88% 29.66 in 10.0 mi West 10.4 mph - N/A   Overcast
4:35 AM 64.4 °F 59.0 °F 83% 29.66 in 10.0 mi West 10.4 mph - N/A   Overcast
4:55 AM 62.6 °F 59.0 °F 88% 29.65 in 10.0 mi West 9.2 mph - N/A   Overcast
5:15 AM 62.6 °F 59.0 °F 88% 29.66 in 10.0 mi West 12.7 mph - N/A   Overcast
5:35 AM 62.6 °F 57.2 °F 82% 29.66 in 10.0 mi West 11.5 mph - N/A   Overcast
5:55 AM 62.6 °F 57.2 °F 82% 29.66 in 10.0 mi West 12.7 mph - N/A   Overcast
6:15 AM 62.6 °F 57.2 °F 82% 29.66 in 10.0 mi West 11.5 mph - N/A   Overcast
6:35 AM 60.8 °F 57.2 °F 88% 29.67 in 10.0 mi West 12.7 mph - N/A   Overcast
6:55 AM 60.8 °F 57.2 °F 88% 29.69 in 10.0 mi West 17.3 mph - N/A   Overcast
7:15 AM 60.8 °F 55.4 °F 82% 29.70 in 10.0 mi West 12.7 mph - N/A   Overcast
7:35 AM 60.8 °F 55.4 °F 82% 29.69 in 10.0 mi West 9.2 mph - N/A   Mostly Cloudy
7:55 AM 60.8 °F 55.4 °F 82% 29.69 in 10.0 mi West 8.1 mph - N/A   Mostly Cloudy
8:15 AM 60.8 °F 55.4 °F 82% 29.69 in 10.0 mi SSW 5.8 mph - N/A   Mostly Cloudy
8:35 AM 59.0 °F 55.4 °F 88% 29.69 in 9.0 mi West 8.1 mph - N/A   Mostly Cloudy
8:55 AM 60.8 °F 55.4 °F 82% 29.69 in 10.0 mi West 9.2 mph - N/A   Mostly Cloudy
9:15 AM 60.8 °F 55.4 °F 82% 29.69 in 10.0 mi West 12.7 mph - N/A   Overcast
9:35 AM 60.8 °F 55.4 °F 82% 29.70 in 10.0 mi West 11.5 mph - N/A   Overcast
9:55 AM 59.0 °F 53.6 °F 82% 29.70 in 10.0 mi West 11.5 mph - N/A   Overcast
10:15 AM 59.0 °F 53.6 °F 82% 29.71 in 10.0 mi West 9.2 mph 19.6 mph N/A   Overcast
10:35 AM 59.0 °F 51.8 °F 77% 29.71 in 10.0 mi West 10.4 mph - N/A   Overcast
10:55 AM 59.0 °F 51.8 °F 77% 29.72 in 10.0 mi WNW 5.8 mph - N/A   Overcast
11:15 AM 60.8 °F 53.6 °F 77% 29.71 in 10.0 mi WNW 11.5 mph 17.3 mph N/A   Overcast
11:35 AM 60.8 °F 51.8 °F 72% 29.72 in 10.0 mi WNW 11.5 mph - N/A   Overcast
11:55 AM 60.8 °F 51.8 °F 72% 29.72 in 10.0 mi West 11.5 mph 18.4 mph N/A   Overcast
12:15 PM 60.8 °F 51.8 °F 72% 29.71 in 10.0 mi WNW 15.0 mph - N/A   Overcast
12:35 PM 60.8 °F 51.8 °F 72% 29.72 in 10.0 mi NW 17.3 mph 20.7 mph N/A   Overcast
12:55 PM 59.0 °F 51.8 °F 77% 29.72 in 10.0 mi WNW 12.7 mph 19.6 mph N/A   Overcast
1:15 PM 57.2 °F 50.0 °F 77% 29.72 in 10.0 mi WNW 11.5 mph 19.6 mph N/A   Overcast
1:35 PM 57.2 °F 48.2 °F 72% 29.72 in 10.0 mi WNW 11.5 mph 20.7 mph N/A   Overcast
1:55 PM 55.4 °F 50.0 °F 82% 29.72 in 10.0 mi WNW 16.1 mph 21.9 mph N/A   Overcast
2:15 PM 55.4 °F 48.2 °F 77% 29.73 in 3.0 mi WNW 11.5 mph 19.6 mph N/A   Overcast
2:35 PM 55.4 °F 50.0 °F 82% 29.73 in 10.0 mi WNW 10.4 mph - N/A   Overcast
2:55 PM 55.4 °F 50.0 °F 82% 29.73 in 10.0 mi WNW 11.5 mph 18.4 mph N/A   Overcast
3:15 PM 57.2 °F 48.2 °F 72% 29.74 in 10.0 mi WNW 13.8 mph 17.3 mph N/A   Overcast
3:35 PM 57.2 °F 48.2 °F 72% 29.74 in 10.0 mi WNW 13.8 mph 20.7 mph N/A   Overcast
3:55 PM 57.2 °F 48.2 °F 72% 29.74 in 10.0 mi WNW 13.8 mph 19.6 mph N/A   Mostly Cloudy
4:15 PM 57.2 °F 48.2 °F 72% 29.75 in 10.0 mi WNW 11.5 mph 23.0 mph N/A   Overcast
4:35 PM 57.2 °F 48.2 °F 72% 29.75 in 10.0 mi WNW 13.8 mph 19.6 mph N/A   Mostly Cloudy
4:55 PM 57.2 °F 46.4 °F 67% 29.75 in 10.0 mi WNW 13.8 mph - N/A   Mostly Cloudy
5:15 PM 57.2 °F 46.4 °F 67% 29.76 in 10.0 mi NW 10.4 mph - N/A   Overcast
5:35 PM 57.2 °F 46.4 °F 67% 29.77 in 10.0 mi WNW 11.5 mph - N/A   Overcast
5:55 PM 55.4 °F 44.6 °F 67% 29.77 in 10.0 mi WNW 10.4 mph - N/A   Overcast
6:15 PM 55.4 °F 44.6 °F 67% 29.77 in 10.0 mi West 10.4 mph - N/A   Overcast
6:35 PM 55.4 °F 44.6 °F 67% 29.77 in 10.0 mi NW 9.2 mph - N/A   Mostly Cloudy
6:55 PM 55.4 °F 44.6 °F 67% 29.77 in 10.0 mi WNW 8.1 mph - N/A   Mostly Cloudy
7:15 PM 53.6 °F 44.6 °F 72% 29.78 in 10.0 mi NW 5.8 mph - N/A   Overcast
7:35 PM 53.6 °F 44.6 °F 72% 29.78 in 10.0 mi NNW 5.8 mph - N/A   Scattered Clouds
7:55 PM 51.8 °F 44.6 °F 76% 29.79 in 10.0 mi NW 4.6 mph - N/A   Partly Cloudy
8:15 PM 50.0 °F 44.6 °F 82% 29.79 in 10.0 mi Calm Calm - N/A   Partly Cloudy
8:35 PM 51.8 °F 44.6 °F 76% 29.79 in 10.0 mi Calm Calm - N/A   Mostly Cloudy
8:55 PM 51.8 °F 44.6 °F 76% 29.79 in 10.0 mi Calm Calm - N/A   Overcast
9:15 PM 51.8 °F 46.4 °F 82% 29.80 in 9.0 mi West 5.8 mph - N/A   Overcast
9:35 PM 51.8 °F 46.4 °F 82% 29.80 in 10.0 mi WSW 4.6 mph - N/A   Overcast
9:55 PM 51.8 °F 46.4 °F 82% 29.80 in 10.0 mi WSW 6.9 mph - N/A   Overcast
10:15 PM 51.8 °F 44.6 °F 76% 29.80 in 10.0 mi West 6.9 mph - N/A   Overcast
10:35 PM 51.8 °F 44.6 °F 76% 29.80 in 10.0 mi WSW 5.8 mph - N/A   Mostly Cloudy
10:55 PM 51.8 °F 44.6 °F 76% 29.80 in 10.0 mi West 5.8 mph - N/A   Overcast
11:15 PM 51.8 °F 44.6 °F 76% 29.80 in 10.0 mi WNW 11.5 mph - N/A   Overcast
11:35 PM 51.8 °F 44.6 °F 76% 29.80 in 10.0 mi WNW 13.8 mph - N/A   Mostly Cloudy
11:55 PM 51.8 °F 44.6 °F 76% 29.80 in 10.0 mi WNW 9.2 mph - N/A   Mostly Cloudy